Regional Weather Roundup
Issued by NWS

Home | Current Version | Previous Version | Graphics & Text | Print | Product List | Glossary Off
Versions: 1 2 3 4 5 6 7 8 9 10 11 12 13 14 15 16 17 18 19 20 21 22 23 24 25 26 27 28 29 30 31 32 33 34 35 36 37 38 39 40 41 42 43 44 45 46 47 48 49 50

000
ASUS43 KDMX 060208
RWRIA

WEATHER ROUNDUP FOR IOWA
NATIONAL WEATHER SERVICE DES MOINES IA
900 PM CDT THU MAY 05 2016

NOTE: "FAIR" INDICATES FEW OR NO CLOUDS BELOW 12,000 FEET WITH NO
SIGNIFICANT WEATHER AND/OR OBSTRUCTIONS TO VISIBILITY.

* - THESE STATIONS ARE NOT NWS STATIONS...THUS NOT UNDER NWS
QUALITY CONTROL.  THEY ALSO DO NOT REPORT WEATHER SUCH
AS PRECIPITATION OR FOG.

IAZ001>003-012>014-020>022-031>034-043>046-060300-
   NORTHWEST IOWA

CITY           SKY/WX    TMP DP  RH WIND       PRES   REMARKS
CARROLL *      CLEAR     64  43  45 SW6       29.98S
CHEROKEE *     CLEAR     61  45  55 CALM      29.97R
DENISON *      CLEAR     66  43  42 CALM      29.97S
LE MARS *      CLEAR     66  45  45 S7        29.97R
ORANGE CITY *  CLEAR     66  45  45 S6        29.96S
SHELDON *      CLEAR     66  43  42 S9        29.94S
SIOUX CITY     CLEAR     67  46  47 S9        29.96R
SPENCER        CLEAR     65  40  39 SW8       29.96S
STORM LAKE *   CLEAR     66  41  39 SW7       29.98S
$$

IAZ055>058-069>071-079>083-090>094-060300-
   SOUTHWEST IOWA

CITY           SKY/WX    TMP DP  RH WIND       PRES   REMARKS
ATLANTIC *     CLEAR     63  43  48 SW5       30.00S
AUDUBON *      CLEAR     61  45  55 CALM      30.02R
CLARINDA *       N/A     61  50  67 MISG      30.03S
COUNCIL BLFS * CLEAR     70  41  35 S6        30.00S
CRESTON *      CLEAR     64  39  39 SW6       30.03S
HARLAN  *      CLEAR     63  45  51 CALM      30.03S
LAMONI         CLEAR     63  39  41 SW5       30.02R
RED OAK *      CLEAR     61  45  55 CALM      30.01R HAZE
SHENANDOAH *   CLEAR     64  45  48 SE6       30.01S
$$

IAZ047>049-059>061-072>074-084-060300-
   CENTRAL IOWA

CITY           SKY/WX    TMP DP  RH WIND       PRES   REMARKS
AMES           CLEAR     60  39  45 S7        29.98S
ANKENY *       CLEAR     61  43  51 S3        29.99S
BOONE *        CLEAR     66  37  34 S5        29.98R
CHARITON *     CLEAR     59  39  47 SE5       30.01S
DES MOINES     PTCLDY    64  37  36 S7        30.00S
GRINNELL*      CLEAR     59  36  41 SW6       30.00S
KNOXVILLE *    CLEAR     63  34  34 S3        30.00R
MARSHALLTOWN   CLEAR     61  37  41 SW8       29.97F
NEWTON *       CLEAR     59  36  41 SW8       29.99S
PELLA *        CLEAR     61  32  33 S5        30.02R
PERRY *          N/A     63  45  51 S8        29.99S
$$

IAZ004>006-015-016-023>025-035-036-060300-
   NORTH CENTRAL IOWA

CITY           SKY/WX    TMP DP  RH WIND       PRES   REMARKS
ALGONA *       CLEAR     66  41  39 SW7       29.96R
CLARION *      CLEAR     64  37  36 SW8       29.96S
ESTHERVILLE    CLEAR     65  42  43 SW9       29.94S
FORT DODGE *   CLEAR     61  39  44 CALM      29.98R
MASON CITY     CLEAR     62  41  46 SW5       29.96S
FOREST CITY *  CLEAR     61  37  41 CALM      29.96R
WEBSTER CITY * CLEAR     63  39  42 S8        29.95S
IOWA FALLS *     N/A     61  39  44 SW9       29.98S
$$

IAZ007>011-017>019-026>030-037>042-050>054-066-060300-
   NORTHEAST IOWA

CITY           SKY/WX    TMP DP  RH WIND       PRES   REMARKS
CEDAR RAPIDS   CLEAR     60  34  37 CALM      29.98S
CHARLES CITY * PTCLDY    61  36  39 S8        29.96R
CLINTON *      CLEAR     58  38  47 CALM      29.99S
DECORAH *      CLEAR     63  37  39 CALM      29.96R
DUBUQUE        CLEAR     56  39  53 CALM      29.98S
MONTICELLO *   CLEAR     59  36  41 CALM      29.98R
OELWEIN *      PTCLDY    59  37  44 S7        29.98S
WATERLOO       CLEAR     59  38  45 S5        29.96S
$$

IAZ064-065-067-068-078-060300-
   EAST CENTRAL IOWA

CITY           SKY/WX    TMP DP  RH WIND       PRES   REMARKS
DAVENPORT      CLEAR     56  37  49 S5        29.99S
IOWA CITY      CLOUDY    56  39  53 W3        30.00S
MT. PLEASANT * CLOUDY    61  37  41 W3        30.00S
MUSCATINE *    CLEAR     57  41  54 CALM      29.99S
QUAD CITIES    CLEAR     54  41  61 CALM      29.98S
$$

IAZ062-063-075>077-085>089-095>099-060300-
   SOUTHEAST IOWA

CITY           SKY/WX    TMP DP  RH WIND       PRES   REMARKS
BURLINGTON     CLEAR     57  41  55 CALM      30.00S
FAIRFIELD *    CLEAR     59  32  36 SW3       30.01R
FORT MADISON * CLEAR     57  39  51 CALM      30.02R
KEOKUK *       CLEAR     57  45  62 CALM      30.00S
OSKALOOSA *      N/A     59  36  41 W6        30.01S
OTTUMWA        CLEAR     55  38  52 SW5       30.01R
WASHINGTON *   CLEAR     59  36  41 W6        30.01S
$$

ABBREVIATIONS USED IN REMARKS
   TC - TEMPERATURES IN CELSIUS
  WCI - WIND CHILL INDEX
   HX - HEAT INDEX
  VSB - VISIBILITY
$$




USA.gov is the U.S. government's official web portal to all federal, state and local government web resources and services.